World > North America > United States > Wisconsin

Richland Center, Wisconsin Regional Weather

Lat: 43.34N, Lon: 90.38W
Wx Zone: WIZ055
Warning NWS WEATHER ALERT - (More Info. Click Here) Warning
Feedback

Richland Center, WI Regional Weather

Expires:202001231700;;397985
ASUS43 KMKX 231621
RWRWI 

WISCONSIN REGIONAL WEATHER ROUNDUP
NATIONAL WEATHER SERVICE MILWAUKEE/SULLIVAN WI
1000 AM CST THU JAN 23 2020

NOTE: "FAIR" INDICATES FEW OR NO CLOUDS BELOW 12,000 FEET WITH NO
SIGNIFICANT WEATHER AND/OR OBSTRUCTIONS TO VISIBILITY.


WIZ032>034-041-042-053>061-231700-
SOUTHWEST WISCONSIN
  
CITY           SKY/WX    TMP DP  RH WIND       PRES   REMARKS
LA CROSSE      CLOUDY    31  27  85 CALM      30.02R FOG              
SPARTA         CLOUDY    29  27  92 E3        30.03S FOG              
VIROQUA        CLOUDY    28  28 100 SE6       29.98S WCI  22          
BOSCOBEL       CLOUDY    32  28  85 NE3       30.02S FOG              
PRAIRIE DU CHI MIX PCPN  31  28  90 E5        30.01R WCI  26          
PLATTEVILLE    CLOUDY    30  30 100 E6        30.00S WCI  24          
$$


SKY/WX - Weather  TMP - Temperature  DP - Dew Point  RH - Relative Humidity
WIND - Wind Direction/Speed PRES - Barometric Pressure VSB - Visibility
WCI - Wind Chill Index E13G22 Wind - East Wind 13 mph/Gusts of 22 mph